Weather Roundup
Issued by NWS Chicago, IL

Home | Current Version | Previous Version | Graphics & Text | Print | Product List | Glossary On
Versions: 1 2 3 4 5 6 7 8 9 10 11 12 13 14 15 16 17 18 19 20 21 22 23 24 25 26 27 28 29 30 31 32 33 34 35 36 37 38 39 40 41 42 43 44 45 46 47 48 49 50
000
NZUS59 KLOT 010510
HRRLOT

CHICAGO AREA WEATHER ROUNDUP
NATIONAL WEATHER SERVICE CHICAGO/ROMEOVILLE IL
1200 AM CDT FRI AUG 01 2014

NOTE: "FAIR" INDICATES FEW OR NO CLOUDS BELOW 12,000 FEET WITH NO
SIGNIFICANT WEATHER AND/OR OBSTRUCTIONS TO VISIBILITY.

* THESE STATIONS ARE NOT UNDER NWS QUALITY CONTROL. THEY ALSO MAY NOT
  REPORT WEATHER SUCH AS PRECIPITATION OR FOG.

ILZ005-006-012>014-019>023-010600-
NORTHEAST ILLINOIS

CITY           SKY/WX    TMP DP  RH WIND       PRES   REMARKS
OHARE          CLEAR     68  57  68 SW6       30.04S
MIDWAY         CLEAR     72  62  71 SW6       30.04S
AURORA         CLEAR     62  58  86 CALM      30.06S
LANSING*       CLEAR     64  62  91 CALM      30.05S
JOLIET*        CLEAR     62  60  93 CALM      30.07R FOG
WAUKEGAN       CLEAR     65  57  75 SW3       30.04R
DUPAGE AIRPORT CLEAR     65  60  84 S3        30.05R
WHEELING       CLEAR     68  58  70 CALM      30.06R
KANKAKEE*      CLEAR     63  61  93 CALM      30.07S
MORRIS*        CLEAR     65  65  99 CALM      30.05S
LEWIS AIRPORT* CLEAR     64  59  85 SW5       30.06S
NORTHERLY IS     N/A     74  60  61 SW3         N/A
$$

WIZ051-052-058>065-066-070>072-010600-
SOUTHEAST WISCONSIN

CITY           SKY/WX    TMP DP  RH WIND       PRES   REMARKS
MILWAUKEE      CLEAR     70  58  65 W5        30.03R
KENOSHA*       CLEAR     63  58  83 SW5       30.04R
RACINE*        CLEAR     67  59  75 W5        30.05R
BURLINGTON     CLEAR     59  57  94 SW3       30.04R
WAUKESHA       CLEAR     63  55  77 CALM      30.05R
WEST BEND      CLEAR     61  59  94 CALM      30.03R
$$

INZ001>003-010>013-019-020-010600-
NORTHWEST INDIANA

CITY           SKY/WX    TMP DP  RH WIND       PRES   REMARKS
GARY*          CLEAR     67  63  84 CALM      30.06R
MICHIGAN CITY* NOT AVBL
RENSSELAER*    NOT AVBL
VALPARAISO     MOCLDY    67  61  81 CALM      30.07R
$$

LMZ740>746-010600-
SOUTHERN LAKE MICHIGAN

STATION/POSITION TIME  SKY/WX   TEMP WIND        PRES    VSBY
                                AIR  DIR/SP/G
                 (UTC)          (F)  (DEG/KT/KT) (MB)    (MI)
HARRISON CRIB    0500            74  240/  8/ 10   N/A
BURNHAM HARBOR   0500            74  230/  2/  6   N/A
CALUMET HARBOR   0500            72  240/  2/  3 1016.3S
BURNS HARBOR     NOT AVBL
MICHIGAN CITY    0500            71  180/  8/  9   N/A
$$

ABBREVIATIONS USED IN REMARKS
   TC - TEMPERATURE IN CELSIUS
  WCI - WIND CHILL INDEX
   HX - HEAT INDEX
  VSB - VISIBILITY
$$


USA.gov is the U.S. government's official web portal to all federal, state and local government web resources and services.